(502501) = 2015 BW406

Discovered at Kitt Peak on 2004-08-20 by Spacewatch.

Orbit

Orbit type: Main Belt

Note: WebGL enabled browser required.

epoch2024-03-31.0
epoch JD2460400.5
perihelion date2022-07-07.49179
perihelion JD2459767.99179
argument of perihelion (°)64.63849
ascending node (°)317.96911
inclination (°)8.07272
eccentricity0.1546809
perihelion distance (AU)2.2508229
Tisserand w.r.t. Jupiter3.4
ΔV w.r.t. Earth (km/sec)9.7
semimajor axis (AU)2.6626902
mean anomaly (°)143.47924
mean daily motion (°/day)0.22684170
aphelion distance (AU)3.075
period (years)4.34
P-vector [x]0.91716406
P-vector [y]0.29611782
P-vector [z]0.26669143
Q-vector [x]-0.38725948
Q-vector [y]0.82016318
Q-vector [z]0.42114421
absolute magnitude17.23
phase slope0.15
uncertainty0
referenceMPEC 2024-E123
observations used156
oppositions11
arc length (days)7139
first opposition used2004
last opposition used2024
residual rms (arc-secs)0.75
perturbers coarse indicatorM-v
perturbers precise indicator003Ek
first observation date used2004-08-20.0
last observation date used2024-03-07.0
computer nameMPCLINUX
JD of orbit computation2458011.209721
perihelion JD uncertainty (days)1.6447E-04
argument of perihelion uncertainty (°)4.4053E-05
ascending node uncertainty (°)2.2378E-05
inclination uncertainty (°)1.1586E-05
eccentricity uncertainty 6.6284E-08
perihelion distance uncertainty (AU)1.8138E-07
Minimum Orbit Intersection Distances (in AU)
for orbit epoch: 2460400.5, reference: E2024-GD4
Mercury1.9173
Venus1.54204
Earth1.26723
Mars0.85029
Jupiter2.45217
Saturn6.40007
Uranus15.4502
Neptune27.5325

Observations

159 total observations over interval: 2004 08 20.23952 – 2024 03 07.376498
These data are available for download (format description).

Date (UT) J2000 RA J2000 Dec Magn Location Ref
2004 08 20.23952 21 57 21.36 -09 57 53.2 20.0 V 691 – Steward Observatory, Kitt Peak-Spacewatch MPS 674217
2004 08 20.28438 21 57 18.65 -09 57 55.5 19.9 V 691 – Steward Observatory, Kitt Peak-Spacewatch MPS 674217
2004 08 20.31154 21 57 17.00 -09 57 57.1 19.8 V 691 – Steward Observatory, Kitt Peak-Spacewatch MPS 674217
2004 09 11.11942 21 37 59.08 -10 14 10.7 21.0 V 691 – Steward Observatory, Kitt Peak-Spacewatch MPS 674217
2004 09 11.14652 21 37 57.85 -10 14 10.8 20.7 V 691 – Steward Observatory, Kitt Peak-Spacewatch MPS 674217
2004 09 11.18639 21 37 56.06 -10 14 12.4 20.9 V 691 – Steward Observatory, Kitt Peak-Spacewatch MPS 674217
2005 12 30.38787 08 15 09.36 +25 31 24.9 19.4 V G96 – Mt. Lemmon Survey MPS 674217
2005 12 30.39580 08 15 08.78 +25 31 24.7 20.6 V G96 – Mt. Lemmon Survey MPS 674217
2005 12 30.40416 08 15 08.28 +25 31 25.0 20.6 V G96 – Mt. Lemmon Survey MPS 674217
2005 12 30.41221 08 15 07.77 +25 31 26.1 20.7 V G96 – Mt. Lemmon Survey MPS 674217
2006 01 10.27027 08 04 02.06 +25 38 52.9 20.9 V G96 – Mt. Lemmon Survey MPS 815644
2006 01 10.27674 08 04 01.59 +25 38 53.4 19.9 V G96 – Mt. Lemmon Survey MPS 815644
2006 01 10.28319 08 04 01.20 +25 38 53.0 21.1 V G96 – Mt. Lemmon Survey MPS 815644
2006 01 10.28965 08 04 00.73 +25 38 53.7 21.6 V G96 – Mt. Lemmon Survey MPS 815644
2006 01 10.33790 08 03 57.54 +25 38 55.5 21.3 V 691 – Steward Observatory, Kitt Peak-Spacewatch MPS 674217
2006 01 10.35522 08 03 56.34 +25 38 55.8 20.9 V 691 – Steward Observatory, Kitt Peak-Spacewatch MPS 674217
2006 01 10.37254 08 03 55.23 +25 38 55.8 21.1 V 691 – Steward Observatory, Kitt Peak-Spacewatch MPS 674217
2011 03 30.38161 11 15 25.710 -03 20 39.61 22.4 w F51 – Pan-STARRS 1, Haleakala MPS 815644
2011 03 30.39607 11 15 25.014 -03 20 36.02 22.3 w F51 – Pan-STARRS 1, Haleakala MPS 815644
2011 03 30.40934 11 15 24.372 -03 20 32.59 22.2 w F51 – Pan-STARRS 1, Haleakala MPS 815644
2013 10 04.24848 00 45 13.34 +17 56 41.3 19.1 V 703 – Catalina Sky Survey MPS 674217
2013 10 04.25612 00 45 12.82 +17 56 40.1 19.7 V 703 – Catalina Sky Survey MPS 674217
2013 10 04.26396 00 45 12.46 +17 56 39.0 19.7 V 703 – Catalina Sky Survey MPS 674217
2013 10 04.27182 00 45 11.93 +17 56 38.5 19.6 V 703 – Catalina Sky Survey MPS 674217
2013 10 24.17558 00 27 58.09 +16 41 52.5 20.1 r I41 – Palomar Mountain--ZTF MPS 674217
2013 10 24.21696 00 27 56.22 +16 41 41.3 20.2 r I41 – Palomar Mountain--ZTF MPS 674217
2013 10 24.24184 00 27 55.09 +16 41 34.2 20.1 r I41 – Palomar Mountain--ZTF MPS 674217
2015 01 20.42342 10 12 46.088 +10 27 26.67 21.5 w F51 – Pan-STARRS 1, Haleakala MPS 567824
2015 01 20.44453 10 12 45.178 +10 27 27.95 21.3 w F51 – Pan-STARRS 1, Haleakala MPS 567824
2015 01 20.45790 10 12 44.596 +10 27 28.77 21.2 w F51 – Pan-STARRS 1, Haleakala MPS 567824
2015 01 20.47134 10 12 44.021 +10 27 29.62 21.3 w F51 – Pan-STARRS 1, Haleakala MPS 567824
2015 01 22.44315 10 11 20.170 +10 29 45.04 21.2 w F51 – Pan-STARRS 1, Haleakala MPS 567824
2015 01 22.45673 10 11 19.541 +10 29 46.11 21.5 w F51 – Pan-STARRS 1, Haleakala MPS 567824
2015 01 22.47035 10 11 18.927 +10 29 47.30 21.3 w F51 – Pan-STARRS 1, Haleakala MPS 567824
2015 01 22.48403 10 11 18.311 +10 29 48.14 21.4 w F51 – Pan-STARRS 1, Haleakala MPS 567824
2015 01 24.37432 10 09 53.26 +10 32 18.7   691 – Steward Observatory, Kitt Peak-Spacewatch MPS 567824
2015 01 24.41169 10 09 51.50 +10 32 22.0   691 – Steward Observatory, Kitt Peak-Spacewatch MPS 567824
2015 01 24.43200 10 09 50.49 +10 32 23.7   691 – Steward Observatory, Kitt Peak-Spacewatch MPS 567824
2015 02 08.31658 09 56 43.41 +11 01 34.9 20.5 V G96 – Mt. Lemmon Survey MPS 571226
2015 02 08.32436 09 56 43.05 +11 01 35.9 19.9 V G96 – Mt. Lemmon Survey MPS 571226
2015 02 08.33215 09 56 42.53 +11 01 37.3 21.5 V G96 – Mt. Lemmon Survey MPS 571226
2015 02 08.33993 09 56 42.00 +11 01 38.0 20.3 V G96 – Mt. Lemmon Survey MPS 571226
2015 02 11.35620 09 53 46.64 +11 08 49.8 20.5 V G96 – Mt. Lemmon Survey MPS 571226
2015 02 11.36228 09 53 46.26 +11 08 50.9 20.6 V G96 – Mt. Lemmon Survey MPS 571226
2015 02 11.36836 09 53 45.88 +11 08 51.8 20.5 V G96 – Mt. Lemmon Survey MPS 571226
2015 02 11.37445 09 53 45.53 +11 08 52.4 20.8 V G96 – Mt. Lemmon Survey MPS 571226
2015 02 13.34791 09 51 50.077 +11 13 41.62 20.8 w F51 – Pan-STARRS 1, Haleakala MPS 580541
2015 02 13.37217 09 51 48.659 +11 13 45.37 20.8 w F51 – Pan-STARRS 1, Haleakala MPS 580541
2015 02 13.38434 09 51 47.906 +11 13 47.17 21.0 w F51 – Pan-STARRS 1, Haleakala MPS 580541
2015 03 10.13731 09 29 59.48 +12 06 28.6 21.3 V 691 – Steward Observatory, Kitt Peak-Spacewatch MPS 585747
2015 03 10.19400 09 29 57.09 +12 06 33.8 21.8 V 691 – Steward Observatory, Kitt Peak-Spacewatch MPS 585747
2015 03 10.25066 09 29 54.66 +12 06 38.6 21.5 V 691 – Steward Observatory, Kitt Peak-Spacewatch MPS 585747
2015 03 18.24234 09 25 06.499 +12 15 51.61 21.3 w F51 – Pan-STARRS 1, Haleakala MPS 587327
2015 03 18.25458 09 25 06.102 +12 15 52.36 21.4 w F51 – Pan-STARRS 1, Haleakala MPS 587327
2015 03 18.26671 09 25 05.708 +12 15 52.98 21.2 w F51 – Pan-STARRS 1, Haleakala MPS 587327
2015 03 18.27882 09 25 05.342 +12 15 53.24 21.7 w F51 – Pan-STARRS 1, Haleakala MPS 587327
2017 07 15.56978 22 01 29.733 -12 59 55.57 20.7 i F51 – Pan-STARRS 1, Haleakala MPS 805463
2017 07 15.59492 22 01 29.008 -12 59 54.19 20.5 i F51 – Pan-STARRS 1, Haleakala MPS 805463
2017 07 15.60746 22 01 28.619 -12 59 53.51 20.6 i F51 – Pan-STARRS 1, Haleakala MPS 805463
2017 07 20.77401 21 58 44.64 -12 56 07.7 20.8 R D29 – Purple Mountain Observatory, XuYi Station MPS 805463
2017 07 20.81290 21 58 43.26 -12 56 07.7 20.7 R D29 – Purple Mountain Observatory, XuYi Station MPS 805463
2017 07 24.48395 21 56 22.015 -12 54 52.72 20.4 w F51 – Pan-STARRS 1, Haleakala MPS 806648
2017 07 24.49492 21 56 21.543 -12 54 52.70 20.3 w F51 – Pan-STARRS 1, Haleakala MPS 806648
2017 07 24.50586 21 56 21.067 -12 54 52.59 20.4 w F51 – Pan-STARRS 1, Haleakala MPS 806648
2017 07 24.51681 21 56 20.590 -12 54 52.45 20.3 w F51 – Pan-STARRS 1, Haleakala MPS 806648
2017 07 26.46424 21 54 57.917 -12 54 39.75 20.4 w F51 – Pan-STARRS 1, Haleakala MPS 806648
2017 07 26.47520 21 54 57.413 -12 54 39.72 20.4 w F51 – Pan-STARRS 1, Haleakala MPS 806648
2017 07 26.48618 21 54 56.901 -12 54 39.72 20.4 w F51 – Pan-STARRS 1, Haleakala MPS 806648
2017 07 26.49711 21 54 56.399 -12 54 39.66 20.4 w F51 – Pan-STARRS 1, Haleakala MPS 806648
2017 07 30.45071 21 51 53.465 -12 55 03.52 20.2 w F51 – Pan-STARRS 1, Haleakala MPS 807982
2017 07 30.47265 21 51 52.348 -12 55 03.77 20.3 w F51 – Pan-STARRS 1, Haleakala MPS 807982
2017 07 30.48363 21 51 51.785 -12 55 03.93 20.3 w F51 – Pan-STARRS 1, Haleakala MPS 807982
2017 08 15.41207 21 37 14.907 -13 03 43.33 19.6 i F51 – Pan-STARRS 1, Haleakala MPS 810339
2017 08 15.42379 21 37 14.194 -13 03 43.90 19.6 i F51 – Pan-STARRS 1, Haleakala MPS 810339
2017 08 15.43552 21 37 13.470 -13 03 44.43 19.6 i F51 – Pan-STARRS 1, Haleakala MPS 810339
2017 08 15.44725 21 37 12.756 -13 03 44.92 19.6 i F51 – Pan-STARRS 1, Haleakala MPS 810339
2017 09 13.33345 21 13 11.007 -13 09 27.78 20.7 w F51 – Pan-STARRS 1, Haleakala MPS 815644
2017 09 13.34705 21 13 10.509 -13 09 27.24 20.8 w F51 – Pan-STARRS 1, Haleakala MPS 815644
2017 10 11.27381 21 09 44.247 -12 17 10.70 21.1 w F51 – Pan-STARRS 1, Haleakala MPS 826220
2017 10 11.28616 21 09 44.451 -12 17 08.49 21.2 w F51 – Pan-STARRS 1, Haleakala MPS 826220
2017 10 11.29849 21 09 44.640 -12 17 06.05 21.0 w F51 – Pan-STARRS 1, Haleakala MPS 826220
2017 10 11.31080 21 09 44.838 -12 17 03.80 20.9 w F51 – Pan-STARRS 1, Haleakala MPS 826220
2017 10 19.12790 21 12 55.52 -11 49 53.0 21.3 G G96 – Mt. Lemmon Survey MPS 828141
2017 10 19.13361 21 12 55.70 -11 49 51.6 21.1 G G96 – Mt. Lemmon Survey MPS 828141
2017 10 19.13931 21 12 55.88 -11 49 50.6 21.2 G G96 – Mt. Lemmon Survey MPS 828141
2017 10 19.14502 21 12 56.04 -11 49 49.0 20.9 G G96 – Mt. Lemmon Survey MPS 828141
2017 11 07.21242 21 27 05.506 -10 19 37.61 21.9 w F51 – Pan-STARRS 1, Haleakala MPS 835550
2017 11 07.22418 21 27 06.137 -10 19 33.29 21.9 w F51 – Pan-STARRS 1, Haleakala MPS 835550
2017 11 07.23594 21 27 06.805 -10 19 29.64 21.8 w F51 – Pan-STARRS 1, Haleakala MPS 835550
